Waarnemingen

Advertentie
Mijn weer
Murcia, Spanje (8430): temperatuur & dauwpunt: 30.05.2020 05:00:00 - 05.06.2020 05:00:00 (CEST)Murcia, Spanje (8430): windsnelheid: 30.05.2020 05:00:00 - 05.06.2020 05:00:00 (CEST)Murcia, Spanje (8430): windrichting: 30.05.2020 05:00:00 - 05.06.2020 05:00:00 (CEST)Murcia, Spanje (8430): luchtdruk: 30.05.2020 05:00:00 - 05.06.2020 05:00:00 (CEST)Murcia, Spanje (8430): zicht: 30.05.2020 05:00:00 - 05.06.2020 05:00:00 (CEST)Murcia, Spanje (8430): neerslag: 30.05.2020 05:00:00 - 05.06.2020 05:00:00 (CEST)
Datum & Tijd tt [°C] td [°C] ff [km/u] ff [kn] dd ppp [hPa] vv [km] rr [mm]
05.06.2020 05:00:00 16,8 14,6 2 1 WNW 1010,8 20 -
05.06.2020 04:00:00 18,0 14,5 4 2 ZW 1010,7 20 0,0
05.06.2020 03:00:00 18,4 14,9 5 3 ZW 1010,8 20 0,0
05.06.2020 02:00:00 18,5 15,6 11 6 NW 1010,6 20 -
05.06.2020 01:00:00 19,3 16,0 8 4 W 1010,6 17 0,0
05.06.2020 00:00:00 19,0 16,4 9 5 W 1010,9 20 0,2
04.06.2020 23:00:00 19,4 16,1 11 6 W 1010,0 8 -
04.06.2020 22:00:00 19,9 16,5 5 3 NW 1009,3 20 0,6
04.06.2020 21:00:00 21,0 17,2 8 4 N 1007,9 20 0,0
04.06.2020 20:00:00 20,9 17,3 4 2 WZW 1007,3 20 -
04.06.2020 19:00:00 20,3 17,1 8 4 WZW 1007,3 13 3,0
04.06.2020 18:00:00 25,8 13,0 31 17 NW 1005,8 20 0,0
04.06.2020 17:00:00 29,7 10,8 24 13 NW 1004,2 25 -
04.06.2020 16:00:00 30,4 11,4 22 12 WNW 1003,9 20 0,0
04.06.2020 15:00:00 31,7 11,5 26 14 NW 1003,7 20 0,0
04.06.2020 14:00:00 31,3 11,1 16 9 WNW 1003,6 20 -
04.06.2020 13:00:00 30,8 10,7 18 10 WZW 1003,8 19 0,0
04.06.2020 12:00:00 30,8 12,2 11 6 NW 1003,9 20 0,0
04.06.2020 11:00:00 29,5 12,0 16 9 W 1004,1 15 -
04.06.2020 10:00:00 28,0 12,4 15 8 WNW 1004,3 20 0,0
04.06.2020 09:00:00 26,3 13,4 13 7 W 1004,3 18 0,0
04.06.2020 08:00:00 24,9 13,8 4 2 NW 1004,4 10 -
04.06.2020 07:00:00 24,2 13,1 9 5 W 1004,1 20 0,0
04.06.2020 06:00:00 23,3 12,9 9 5 WNW 1003,6 20 0,0
04.06.2020 05:00:00 21,6 12,4 9 5 W 1003,5 20 -
04.06.2020 04:00:00 22,6 12,8 5 3 W 1003,8 20 0,0
04.06.2020 03:00:00 22,9 13,9 4 2 W 1004,3 20 0,0
04.06.2020 02:00:00 21,8 14,7 5 3 W 1004,8 19 -
04.06.2020 01:00:00 21,0 16,8 5 3 N 1005,2 15 0,0
04.06.2020 00:00:00 22,8 17,3 4 2 W 1005,2 16 0,0
03.06.2020 23:00:00 23,8 17,3 8 4 ZZW 1005,1 17 -
03.06.2020 22:00:00 25,8 17,2 9 5 ZW 1004,3 19 0,0
03.06.2020 21:00:00 28,0 15,6 11 6 WZW 1004,0 20 0,0
03.06.2020 20:00:00 30,8 15,2 9 5 ZW 1003,7 25 -
03.06.2020 19:00:00 31,8 16,1 13 7 Z 1003,9 20 0,0
03.06.2020 18:00:00 32,3 17,0 13 7 ZZW 1004,4 20 0,0
03.06.2020 17:00:00 32,5 16,8 11 6 ZZO 1005,0 20 -
03.06.2020 16:00:00 32,3 15,3 8 4 Z 1006,0 20 0,0
03.06.2020 15:00:00 31,3 14,0 8 4 ZZO 1006,9 20 0,0
03.06.2020 14:00:00 30,1 14,2 5 3 ZO 1008,3 10 -
03.06.2020 13:00:00 29,3 13,1 5 3 Z 1009,1 11 0,0
03.06.2020 12:00:00 27,2 12,8 4 2 W 1009,9 7 0,0
03.06.2020 11:00:00 25,1 15,1 4 2 WZW 1010,6 10 -
03.06.2020 10:00:00 23,0 16,1 4 2 Z 1011,4 17 0,0
03.06.2020 09:00:00 20,9 15,2 4 2 Z 1011,8 16 0,0
03.06.2020 08:00:00 19,0 14,9 4 2 ZZW 1011,9 6 -
03.06.2020 07:00:00 17,1 14,0 4 2 W 1011,6 18 0,0
03.06.2020 06:00:00 16,6 14,1 2 1 WNW 1011,5 16 0,0
03.06.2020 05:00:00 17,7 14,8 2 1 WNW 1011,7 16 -
03.06.2020 04:00:00 19,0 15,3 4 2 ZZW 1012,2 18 0,0
03.06.2020 03:00:00 19,3 16,3 0 0 N 1012,9 16 0,0
03.06.2020 02:00:00 19,6 16,6 4 2 NO 1013,4 18 -
03.06.2020 01:00:00 19,7 16,5 8 4 NNO 1013,4 18 0,0
03.06.2020 00:00:00 20,7 16,3 8 4 ONO 1013,7 20 0,0
02.06.2020 23:00:00 21,6 15,9 8 4 NO 1013,6 20 -
02.06.2020 22:00:00 23,1 15,9 11 6 ONO 1013,0 20 0,0
02.06.2020 21:00:00 24,8 15,1 11 6 ONO 1012,7 20 0,0
02.06.2020 20:00:00 26,4 13,5 8 4 ONO 1012,5 15 -
02.06.2020 19:00:00 27,7 10,0 5 3 ZO 1012,5 20 0,0
02.06.2020 18:00:00 28,1 11,6 11 6 O 1012,7 20 0,0
02.06.2020 17:00:00 29,0 12,8 11 6 ZO 1013,0 15 -
02.06.2020 16:00:00 29,1 14,9 18 10 ONO 1013,3 20 0,0
02.06.2020 15:00:00 29,5 16,0 15 8 ONO 1013,7 20 0,0
02.06.2020 14:00:00 30,6 13,8 9 5 ONO 1014,2 15 -
02.06.2020 13:00:00 28,7 7,8 9 5 O 1015,0 15 0,0
02.06.2020 12:00:00 27,0 11,5 9 5 O 1015,6 20 0,0
02.06.2020 11:00:00 24,8 10,3 5 3 OZO 1016,2 10 -
02.06.2020 10:00:00 21,7 16,9 2 1 ZW 1016,4 1,6 0,0
02.06.2020 09:00:00 19,3 16,5 5 3 ZZW 1016,4 0,7 0,0
02.06.2020 08:00:00 18,3 16,5 8 4 WNW 1016,2 5 -
02.06.2020 07:00:00 17,6 14,9 5 3 W 1016,0 1,2 0,0
02.06.2020 06:00:00 17,6 15,0 2 1 W 1015,6 19 0,0
02.06.2020 05:00:00 16,2 14,2 2 1 N 1015,5 17 -
02.06.2020 04:00:00 17,4 14,5 4 2 Z 1015,6 19 0,0
02.06.2020 03:00:00 18,1 15,9 2 1 N 1015,8 17 0,0
02.06.2020 02:00:00 18,8 15,7 8 4 ONO 1016,1 20 -
02.06.2020 01:00:00 19,5 15,8 8 4 NNO 1016,3 20 0,0
02.06.2020 00:00:00 20,4 15,2 5 3 ONO 1016,3 20 0,0
01.06.2020 23:00:00 21,5 15,1 8 4 ONO 1015,9 20 -
01.06.2020 22:00:00 22,4 14,3 11 6 ONO 1015,3 20 0,0
01.06.2020 21:00:00 23,6 15,4 13 7 ONO 1015,0 20 0,0
01.06.2020 20:00:00 25,1 14,2 15 8 ONO 1014,5 20 -
01.06.2020 19:00:00 26,9 10,6 11 6 OZO 1014,5 20 0,0
01.06.2020 18:00:00 28,1 11,2 18 10 ONO 1014,3 20 0,0
01.06.2020 17:00:00 29,3 11,4 15 8 O 1014,2 15 -
01.06.2020 16:00:00 30,5 12,4 15 8 OZO 1014,5 20 0,0
01.06.2020 15:00:00 30,9 11,3 16 9 ONO 1014,3 20 0,0
01.06.2020 14:00:00 29,8 10,8 9 5 ONO 1014,5 15 -
01.06.2020 13:00:00 29,0 9,2 11 6 ONO 1014,9 20 0,0
01.06.2020 12:00:00 27,4 8,3 8 4 O 1015,0 20 0,0
01.06.2020 11:00:00 25,3 11,5 4 2 ZZO 1015,2 10 -
01.06.2020 10:00:00 23,0 12,6 4 2 ZZO 1015,4 19 0,0
01.06.2020 09:00:00 20,7 11,9 4 2 W 1015,2 20 0,0
01.06.2020 08:00:00 18,0 11,3 5 3 W 1015,0 10 -
01.06.2020 07:00:00 16,3 12,3 5 3 ZZW 1014,9 1,9 0,0
01.06.2020 06:00:00 17,0 13,1 5 3 WNW 1014,3 12 0,0
01.06.2020 05:00:00 18,0 13,5 5 3 WNW 1014,5 20 -
01.06.2020 04:00:00 17,8 13,9 8 4 NW 1014,6 20 0,0
01.06.2020 03:00:00 19,7 13,2 5 3 ZW 1014,9 20 0,0
01.06.2020 02:00:00 20,5 14,4 4 2 WNW 1015,0 20 -
01.06.2020 01:00:00 20,6 14,0 11 6 N 1014,7 20 0,0
01.06.2020 00:00:00 21,7 14,3 8 4 ONO 1013,4 19 0,0
31.05.2020 23:00:00 22,2 11,3 9 5 ONO 1013,0 20 -
31.05.2020 22:00:00 23,0 8,7 13 7 ONO 1013,0 20 0,0
31.05.2020 21:00:00 24,2 9,4 8 4 O 1012,9 20 0,0
31.05.2020 20:00:00 25,2 9,9 15 8 ONO 1011,7 20 -
31.05.2020 19:00:00 26,8 9,6 8 4 OZO 1012,2 20 0,0
31.05.2020 18:00:00 26,6 9,4 9 5 OZO 1012,5 20 0,0
31.05.2020 17:00:00 26,5 8,5 16 9 O 1012,0 20 -
31.05.2020 16:00:00 27,7 11,3 15 8 O 1012,3 20 0,0
31.05.2020 15:00:00 27,7 10,4 15 8 O 1012,5 20 0,0
31.05.2020 14:00:00 28,2 9,9 16 9 ONO 1012,8 20 -
31.05.2020 13:00:00 27,0 9,4 11 6 O 1013,3 20 0,0
31.05.2020 12:00:00 25,6 6,7 9 5 O 1013,8 20 0,0
31.05.2020 11:00:00 23,7 8,1 4 2 W 1013,9 20 -
31.05.2020 10:00:00 20,6 9,8 5 3 W 1014,2 20 0,0
31.05.2020 09:00:00 17,6 10,2 8 4 W 1014,2 20 0,0
31.05.2020 08:00:00 16,3 10,4 4 2 WZW 1014,1 20 -
31.05.2020 07:00:00 14,5 10,1 2 1 WNW 1013,9 20 0,0
31.05.2020 06:00:00 14,9 10,7 4 2 WNW 1013,9 20 0,0
31.05.2020 05:00:00 15,7 11,3 4 2 W 1013,9 20 -
31.05.2020 04:00:00 14,9 11,5 2 1 WNW 1014,4 20 0,0
31.05.2020 03:00:00 16,3 13,8 2 1 NW 1014,5 20 0,0
31.05.2020 02:00:00 17,2 14,3 4 2 N 1015,3 19 -
31.05.2020 01:00:00 18,3 15,0 8 4 ONO 1015,3 20 0,0
31.05.2020 00:00:00 18,6 13,0 9 5 NO 1015,5 20 0,0
30.05.2020 23:00:00 19,8 9,7 11 6 ONO 1014,8 20 -
30.05.2020 22:00:00 21,0 4,9 11 6 ONO 1014,0 20 0,0
30.05.2020 21:00:00 23,3 7,4 13 7 ONO 1013,8 20 0,0
30.05.2020 20:00:00 25,4 6,6 15 8 ONO 1013,4 25 -
30.05.2020 19:00:00 26,0 8,0 13 7 O 1013,2 20 0,0
30.05.2020 18:00:00 27,1 9,4 18 10 ONO 1013,4 20 0,0
30.05.2020 17:00:00 28,0 12,4 18 10 O 1013,9 25 -
30.05.2020 16:00:00 28,4 12,3 18 10 ONO 1014,2 20 0,0
30.05.2020 15:00:00 28,3 12,6 15 8 ONO 1014,7 20 0,0
30.05.2020 14:00:00 27,6 10,8 8 4 NNW 1015,2 25 -
30.05.2020 13:00:00 26,7 8,6 13 7 O 1015,8 20 0,0
30.05.2020 12:00:00 25,5 8,9 5 3 O 1016,1 20 0,0
30.05.2020 11:00:00 23,9 9,8 5 3 NNW 1016,2 20 -
30.05.2020 10:00:00 21,6 13,2 5 3 NNW 1016,5 20 0,0
30.05.2020 09:00:00 19,1 10,6 5 3 W 1016,5 20 0,0
30.05.2020 08:00:00 16,5 9,9 5 3 W 1016,6 20 -
30.05.2020 07:00:00 14,0 9,4 2 1 W 1016,4 20 0,0
30.05.2020 06:00:00 15,1 9,7 4 2 ZW 1016,0 20 0,0
30.05.2020 05:00:00 15,7 9,8 8 4 WNW 1016,1 20 -

tt = temperatuur
td = dauwpunt
ff = windsnelheid
dd = windrichting
ppp = luchtdruk
vv = zicht
rr = neerslag

Weerstations in de omgeving